Time,TemperatureF,DewpointF,PressureIn,WindDirection,WindDirectionDegrees,WindSpeedMPH,WindSpeedGustMPH,Humidity,HourlyPrecipIn,Conditions,Clouds,dailyrainin,SoftwareType,DateUTC
2013-01-20 00:04:00,38.2,36.6,30.24,NW,315,0.0,0.0,94,0.00,CLR,,0.00,WeatherDisplay:10.37,2013-01-20 08:04:00,
2013-01-20 00:09:00,37.9,36.1,30.24,NW,315,0.0,0.0,93,0.00,CLR,,0.00,WeatherDisplay:10.37,2013-01-20 08:09:00,
2013-01-20 00:14:00,37.9,36.3,30.24,NW,314,0.0,0.0,94,0.00,CLR,,0.00,WeatherDisplay:10.37,2013-01-20 08:14:00,
2013-01-20 00:19:00,37.8,36.2,30.23,NW,315,0.0,0.0,94,0.00,CLR,,0.00,WeatherDisplay:10.37,2013-01-20 08:19:00,
2013-01-20 00:24:00,37.6,35.8,30.23,NW,315,0.0,0.0,93,0.00,CLR,,0.00,WeatherDisplay:10.37,2013-01-20 08:24:00,
2013-01-20 00:29:00,37.3,35.5,30.23,NW,315,0.0,0.0,93,0.00,CLR,,0.00,WeatherDisplay:10.37,2013-01-20 08:29:00,
2013-01-20 00:34:00,37.0,35.2,30.24,NW,314,0.0,0.0,93,0.00,CLR,,0.00,WeatherDisplay:10.37,2013-01-20 08:34:00,
2013-01-20 00:39:00,36.7,34.9,30.24,NW,315,0.0,0.0,93,0.00,CLR,,0.00,WeatherDisplay:10.37,2013-01-20 08:39:00,
2013-01-20 00:44:00,36.4,34.6,30.24,NW,314,0.0,0.0,93,0.00,CLR,,0.00,WeatherDisplay:10.37,2013-01-20 08:44:00,
2013-01-20 00:49:00,36.3,34.5,30.24,NW,314,0.0,0.0,93,0.00,CLR,,0.00,WeatherDisplay:10.37,2013-01-20 08:49:00,
2013-01-20 00:54:00,36.0,34.2,30.24,NW,314,0.0,0.0,93,0.00,CLR,,0.00,WeatherDisplay:10.37,2013-01-20 08:54:00,
2013-01-20 00:59:00,35.8,34.0,30.23,NW,314,0.0,0.0,93,0.00,CLR,,0.00,WeatherDisplay:10.37,2013-01-20 08:59:00,
2013-01-20 01:04:00,35.6,33.8,30.24,NW,314,0.0,0.0,93,0.00,CLR,,0.00,WeatherDisplay:10.37,2013-01-20 09:04:00,
2013-01-20 01:09:00,35.5,33.7,30.23,NW,315,0.0,0.0,93,0.00,CLR,,0.00,WeatherDisplay:10.37,2013-01-20 09:09:00,
2013-01-20 01:14:00,35.7,34.1,30.23,NW,315,0.0,0.0,94,0.00,CLR,,0.00,WeatherDisplay:10.37,2013-01-20 09:14:00,
2013-01-20 01:19:00,35.8,34.2,30.23,NW,315,0.0,0.0,94,0.00,CLR,,0.00,WeatherDisplay:10.37,2013-01-20 09:19:00,
2013-01-20 01:24:00,35.8,34.2,30.23,NW,315,0.0,0.0,94,0.00,CLR,,0.00,WeatherDisplay:10.37,2013-01-20 09:24:00,
2013-01-20 01:29:00,35.7,34.1,30.23,NW,314,0.0,0.0,94,0.00,CLR,,0.00,WeatherDisplay:10.37,2013-01-20 09:29:00,
2013-01-20 01:34:00,35.6,34.0,30.24,NW,315,0.0,0.0,94,0.00,CLR,,0.00,WeatherDisplay:10.37,2013-01-20 09:34:00,
2013-01-20 01:39:00,35.5,33.9,30.24,NW,315,0.0,0.0,94,0.00,CLR,,0.00,WeatherDisplay:10.37,2013-01-20 09:39:00,
2013-01-20 01:44:00,35.4,33.8,30.24,NW,315,0.0,0.0,94,0.00,CLR,,0.00,WeatherDisplay:10.37,2013-01-20 09:44:00,
2013-01-20 01:49:00,35.4,33.8,30.24,NW,314,0.0,0.0,94,0.00,CLR,,0.00,WeatherDisplay:10.37,2013-01-20 09:49:00,
2013-01-20 01:54:00,35.3,33.7,30.24,NW,314,0.0,0.0,94,0.00,CLR,,0.00,WeatherDisplay:10.37,2013-01-20 09:54:00,
2013-01-20 01:59:00,35.1,33.5,30.24,NW,315,0.0,0.0,94,0.00,CLR,,0.00,WeatherDisplay:10.37,2013-01-20 09:59:00,
2013-01-20 02:04:00,35.0,33.4,30.24,NW,315,0.0,0.0,94,0.00,CLR,,0.00,WeatherDisplay:10.37,2013-01-20 10:04:00,
2013-01-20 02:09:00,34.8,33.2,30.24,NW,315,0.0,0.0,94,0.00,CLR,,0.00,WeatherDisplay:10.37,2013-01-20 10:09:00,
2013-01-20 02:14:00,34.7,33.2,30.24,NW,314,0.0,0.0,94,0.00,CLR,,0.00,WeatherDisplay:10.37,2013-01-20 10:14:00,
2013-01-20 02:19:00,34.6,33.1,30.24,NW,315,0.0,0.0,94,0.00,CLR,,0.00,WeatherDisplay:10.37,2013-01-20 10:19:00,
2013-01-20 02:24:00,34.5,33.0,30.24,NW,314,0.0,0.0,94,0.00,CLR,,0.00,WeatherDisplay:10.37,2013-01-20 10:24:00,
2013-01-20 02:29:00,34.5,33.0,30.24,NW,314,0.0,0.0,94,0.00,CLR,,0.00,WeatherDisplay:10.37,2013-01-20 10:29:00,
2013-01-20 02:34:00,34.5,33.2,30.24,NW,315,0.0,0.0,95,0.00,CLR,,0.00,WeatherDisplay:10.37,2013-01-20 10:34:00,
2013-01-20 02:39:00,34.4,32.9,30.24,NW,314,0.0,0.0,94,0.00,CLR,,0.00,WeatherDisplay:10.37,2013-01-20 10:39:00,
2013-01-20 02:44:00,34.2,32.7,30.24,NW,315,0.0,0.0,94,0.00,CLR,,0.00,WeatherDisplay:10.37,2013-01-20 10:44:00,
2013-01-20 02:49:00,34.1,32.6,30.24,NW,315,0.0,0.0,94,0.00,CLR,,0.00,WeatherDisplay:10.37,2013-01-20 10:49:00,
2013-01-20 02:54:00,34.0,32.5,30.24,NW,315,0.0,0.0,94,0.00,CLR,,0.00,WeatherDisplay:10.37,2013-01-20 10:54:00,
2013-01-20 02:59:00,33.9,32.6,30.24,NW,315,0.0,0.0,95,0.00,CLR,,0.00,WeatherDisplay:10.37,2013-01-20 10:59:00,
2013-01-20 03:04:00,33.9,32.6,30.24,NW,314,0.0,0.0,95,0.00,CLR,,0.00,WeatherDisplay:10.37,2013-01-20 11:04:00,
2013-01-20 03:09:00,33.9,32.4,30.24,NW,315,0.0,0.0,94,0.00,CLR,,0.00,WeatherDisplay:10.37,2013-01-20 11:09:00,
2013-01-20 03:14:00,33.7,32.4,30.24,NW,314,0.0,0.0,95,0.00,CLR,,0.00,WeatherDisplay:10.37,2013-01-20 11:14:00,
2013-01-20 03:19:00,33.7,32.4,30.24,NW,314,0.0,0.0,95,0.00,CLR,,0.00,WeatherDisplay:10.37,2013-01-20 11:19:00,
2013-01-20 03:24:00,33.5,32.2,30.24,NW,314,0.0,0.0,95,0.00,CLR,,0.00,WeatherDisplay:10.37,2013-01-20 11:24:00,
2013-01-20 03:29:00,33.5,32.2,30.24,NW,315,0.0,0.0,95,0.00,CLR,,0.00,WeatherDisplay:10.37,2013-01-20 11:29:00,
2013-01-20 03:34:00,33.5,32.2,30.24,NW,314,0.0,0.0,95,0.00,CLR,,0.00,WeatherDisplay:10.37,2013-01-20 11:34:00,
2013-01-20 03:39:00,33.4,32.1,30.24,NW,314,0.0,0.0,95,0.00,CLR,,0.00,WeatherDisplay:10.37,2013-01-20 11:39:00,
2013-01-20 03:44:00,33.3,32.0,30.24,NW,315,0.0,0.0,95,0.00,CLR,,0.00,WeatherDisplay:10.37,2013-01-20 11:44:00,
2013-01-20 03:49:00,33.1,31.8,30.24,NW,314,0.0,0.0,95,0.00,CLR,,0.00,WeatherDisplay:10.37,2013-01-20 11:49:00,
2013-01-20 03:54:00,32.9,31.6,30.24,NW,314,0.0,0.0,95,0.00,CLR,,0.00,WeatherDisplay:10.37,2013-01-20 11:54:00,
2013-01-20 03:59:00,32.8,31.5,30.24,NW,315,0.0,0.0,95,0.00,CLR,,0.00,WeatherDisplay:10.37,2013-01-20 11:59:00,
2013-01-20 04:04:00,32.8,31.5,30.24,NW,315,0.0,0.0,95,0.00,CLR,,0.00,WeatherDisplay:10.37,2013-01-20 12:04:00,
2013-01-20 04:09:00,32.8,31.5,30.24,NW,314,0.0,0.0,95,0.00,CLR,,0.00,WeatherDisplay:10.37,2013-01-20 12:09:00,
2013-01-20 04:14:00,32.9,31.6,30.24,NW,315,0.0,0.0,95,0.00,CLR,,0.00,WeatherDisplay:10.37,2013-01-20 12:14:00,
2013-01-20 04:19:00,33.0,31.7,30.24,NW,315,0.0,0.0,95,0.00,CLR,,0.00,WeatherDisplay:10.37,2013-01-20 12:19:00,
2013-01-20 04:24:00,33.2,32.2,30.24,NW,315,0.0,0.0,96,0.00,CLR,,0.00,WeatherDisplay:10.37,2013-01-20 12:24:00,
2013-01-20 04:29:00,33.3,32.3,30.24,NW,315,0.0,0.0,96,0.00,CLR,,0.00,WeatherDisplay:10.37,2013-01-20 12:29:00,
2013-01-20 04:34:00,33.2,31.9,30.24,NW,315,0.0,0.0,95,0.00,CLR,,0.00,WeatherDisplay:10.37,2013-01-20 12:34:00,
2013-01-20 04:39:00,33.1,31.8,30.24,NW,314,0.0,0.0,95,0.00,CLR,,0.00,WeatherDisplay:10.37,2013-01-20 12:39:00,
2013-01-20 04:44:00,32.9,31.6,30.24,NW,314,0.0,0.0,95,0.00,CLR,,0.00,WeatherDisplay:10.37,2013-01-20 12:44:00,
2013-01-20 04:49:00,32.9,31.6,30.23,NW,315,0.0,0.0,95,0.00,CLR,,0.00,WeatherDisplay:10.37,2013-01-20 12:49:00,
2013-01-20 04:54:00,32.8,31.5,30.24,NW,315,0.0,0.0,95,0.00,CLR,,0.00,WeatherDisplay:10.37,2013-01-20 12:54:00,
2013-01-20 04:59:00,32.7,31.4,30.23,NW,314,0.0,0.0,95,0.00,CLR,,0.00,WeatherDisplay:10.37,2013-01-20 12:59:00,
2013-01-20 05:04:00,32.6,31.3,30.23,NW,314,0.0,0.0,95,0.00,CLR,,0.00,WeatherDisplay:10.37,2013-01-20 13:04:00,
2013-01-20 05:09:00,32.5,31.2,30.23,NW,315,0.0,0.0,95,0.00,CLR,,0.00,WeatherDisplay:10.37,2013-01-20 13:09:00,
2013-01-20 05:14:00,32.5,31.2,30.24,NW,315,0.0,0.0,95,0.00,CLR,,0.00,WeatherDisplay:10.37,2013-01-20 13:14:00,
2013-01-20 05:19:00,32.6,31.3,30.23,NW,314,0.0,0.0,95,0.00,CLR,,0.00,WeatherDisplay:10.37,2013-01-20 13:19:00,
2013-01-20 05:24:00,32.9,31.9,30.23,NW,315,0.0,0.0,96,0.00,CLR,,0.00,WeatherDisplay:10.37,2013-01-20 13:24:00,
2013-01-20 05:29:00,32.9,31.9,30.24,NW,315,0.0,0.0,96,0.00,CLR,,0.00,WeatherDisplay:10.37,2013-01-20 13:29:00,
2013-01-20 05:34:00,32.8,31.5,30.24,NW,315,0.0,0.0,95,0.00,CLR,,0.00,WeatherDisplay:10.37,2013-01-20 13:34:00,
2013-01-20 05:39:00,32.8,31.5,30.23,NW,315,0.0,0.0,95,0.00,CLR,,0.00,WeatherDisplay:10.37,2013-01-20 13:39:00,
2013-01-20 05:44:00,32.9,31.6,30.23,NW,315,0.0,0.0,95,0.00,CLR,,0.00,WeatherDisplay:10.37,2013-01-20 13:44:00,
2013-01-20 05:49:00,32.8,31.5,30.23,NW,315,0.0,0.0,95,0.00,CLR,,0.00,WeatherDisplay:10.37,2013-01-20 13:49:00,
2013-01-20 05:54:00,32.7,31.4,30.23,NW,315,0.0,0.0,95,0.00,CLR,,0.00,WeatherDisplay:10.37,2013-01-20 13:54:00,
2013-01-20 05:59:00,32.6,31.3,30.23,NW,315,0.0,0.0,95,0.00,CLR,,0.00,WeatherDisplay:10.37,2013-01-20 13:59:00,
2013-01-20 06:04:00,32.6,31.6,30.23,NW,314,0.0,0.0,96,0.00,CLR,,0.00,WeatherDisplay:10.37,2013-01-20 14:04:00,
2013-01-20 06:09:00,32.5,31.5,30.23,NW,315,0.0,0.0,96,0.00,CLR,,0.00,WeatherDisplay:10.37,2013-01-20 14:09:00,
2013-01-20 06:14:00,32.5,31.2,30.23,NW,315,0.0,0.0,95,0.00,CLR,,0.00,WeatherDisplay:10.37,2013-01-20 14:14:00,
2013-01-20 06:19:00,32.4,31.4,30.23,NW,315,0.0,0.0,96,0.00,CLR,,0.00,WeatherDisplay:10.37,2013-01-20 14:19:00,
2013-01-20 06:24:00,32.4,31.4,30.23,NW,314,0.0,0.0,96,0.00,CLR,,0.00,WeatherDisplay:10.37,2013-01-20 14:24:00,
2013-01-20 06:29:00,32.3,31.0,30.23,NW,314,0.0,0.0,95,0.00,CLR,,0.00,WeatherDisplay:10.37,2013-01-20 14:29:00,
2013-01-20 06:34:00,32.2,30.9,30.23,NW,315,0.0,0.0,95,0.00,CLR,,0.00,WeatherDisplay:10.37,2013-01-20 14:34:00,
2013-01-20 06:39:00,32.2,30.9,30.24,NW,314,0.0,0.0,95,0.00,CLR,,0.00,WeatherDisplay:10.37,2013-01-20 14:39:00,
2013-01-20 06:44:00,32.2,30.9,30.24,NW,315,0.0,0.0,95,0.00,CLR,,0.00,WeatherDisplay:10.37,2013-01-20 14:44:00,
2013-01-20 06:49:00,32.2,30.9,30.24,NW,315,0.0,0.0,95,0.00,CLR,,0.00,WeatherDisplay:10.37,2013-01-20 14:49:00,
2013-01-20 06:54:00,32.4,31.4,30.24,NW,315,0.0,0.0,96,0.00,CLR,,0.00,WeatherDisplay:10.37,2013-01-20 14:54:00,
2013-01-20 06:59:00,32.4,31.4,30.23,NW,315,0.0,0.0,96,0.00,CLR,,0.00,WeatherDisplay:10.37,2013-01-20 14:59:00,
2013-01-20 07:04:00,32.3,31.0,30.23,NW,315,0.0,0.0,95,0.00,CLR,,0.00,WeatherDisplay:10.37,2013-01-20 15:04:00,
2013-01-20 07:09:00,31.9,30.6,30.23,NW,315,0.0,0.0,95,0.00,CLR,,0.00,WeatherDisplay:10.37,2013-01-20 15:09:00,
2013-01-20 07:14:00,31.6,30.3,30.23,NW,314,0.0,0.0,95,0.00,CLR,,0.00,WeatherDisplay:10.37,2013-01-20 15:14:00,
2013-01-20 07:19:00,31.4,30.1,30.23,NW,314,0.0,0.0,95,0.00,CLR,,0.00,WeatherDisplay:10.37,2013-01-20 15:19:00,
2013-01-20 07:24:00,31.3,30.0,30.23,NW,315,0.0,0.0,95,0.00,CLR,,0.00,WeatherDisplay:10.37,2013-01-20 15:24:00,
2013-01-20 07:29:00,31.4,30.1,30.23,NW,314,0.0,0.0,95,0.00,CLR,,0.00,WeatherDisplay:10.37,2013-01-20 15:29:00,
2013-01-20 07:34:00,31.5,30.5,30.24,NW,315,0.0,0.0,96,0.00,CLR,,0.00,WeatherDisplay:10.37,2013-01-20 15:34:00,
2013-01-20 07:39:00,31.8,30.8,30.24,NW,315,0.0,0.0,96,0.00,CLR,,0.00,WeatherDisplay:10.37,2013-01-20 15:39:00,
2013-01-20 07:44:00,32.1,31.1,30.24,NW,314,0.0,0.0,96,0.00,CLR,,0.00,WeatherDisplay:10.37,2013-01-20 15:44:00,
2013-01-20 07:49:00,32.5,31.5,30.24,NW,314,0.0,0.0,96,0.00,CLR,,0.00,WeatherDisplay:10.37,2013-01-20 15:49:00,
2013-01-20 07:54:00,33.1,32.1,30.24,NW,314,0.0,0.0,96,0.00,CLR,,0.00,WeatherDisplay:10.37,2013-01-20 15:54:00,
2013-01-20 07:59:00,33.8,33.0,30.24,NW,314,0.0,0.0,97,0.00,CLR,,0.00,WeatherDisplay:10.37,2013-01-20 15:59:00,
2013-01-20 08:04:00,34.8,34.0,30.24,NW,315,0.0,0.0,97,0.00,CLR,,0.00,WeatherDisplay:10.37,2013-01-20 16:04:00,
2013-01-20 08:09:00,35.6,34.8,30.24,NW,314,0.0,0.0,97,0.00,CLR,,0.00,WeatherDisplay:10.37,2013-01-20 16:09:00,
2013-01-20 08:14:00,36.3,35.5,30.24,NW,314,0.0,0.0,97,0.00,CLR,,0.00,WeatherDisplay:10.37,2013-01-20 16:14:00,
2013-01-20 08:19:00,37.1,36.3,30.24,NW,318,0.0,0.0,97,0.00,CLR,,0.00,WeatherDisplay:10.37,2013-01-20 16:19:00,
2013-01-20 08:24:00,37.7,36.9,30.24,NNW,347,0.0,0.0,97,0.00,CLR,,0.00,WeatherDisplay:10.37,2013-01-20 16:24:00,
2013-01-20 08:29:00,38.2,37.4,30.24,NNW,347,0.0,0.0,97,0.00,CLR,,0.00,WeatherDisplay:10.37,2013-01-20 16:29:00,
2013-01-20 08:34:00,38.6,37.8,30.25,NNW,347,0.0,0.0,97,0.00,CLR,,0.00,WeatherDisplay:10.37,2013-01-20 16:34:00,
2013-01-20 08:39:00,39.2,38.2,30.25,North,349,0.0,0.0,96,0.00,CLR,,0.00,WeatherDisplay:10.37,2013-01-20 16:39:00,
2013-01-20 08:44:00,39.8,38.5,30.25,NNW,347,0.0,0.0,95,0.00,CLR,,0.00,WeatherDisplay:10.37,2013-01-20 16:44:00,
2013-01-20 08:49:00,40.4,38.8,30.25,NNW,347,0.0,0.0,94,0.00,CLR,,0.00,WeatherDisplay:10.37,2013-01-20 16:49:00,
2013-01-20 08:54:00,40.9,38.8,30.26,NNW,347,0.0,0.0,92,0.00,CLR,,0.00,WeatherDisplay:10.37,2013-01-20 16:54:00,
2013-01-20 08:59:00,41.8,38.5,30.26,NNW,347,0.0,0.0,88,0.00,CLR,,0.00,WeatherDisplay:10.37,2013-01-20 16:59:00,
2013-01-20 09:04:00,43.1,38.6,30.26,SW,229,1.1,1.1,84,0.00,CLR,,0.00,WeatherDisplay:10.37,2013-01-20 17:04:00,
2013-01-20 09:09:00,43.8,39.3,30.26,SW,230,0.0,0.0,84,0.00,CLR,,0.00,WeatherDisplay:10.37,2013-01-20 17:09:00,
2013-01-20 09:14:00,44.7,39.5,30.26,SW,218,0.0,0.0,82,0.00,CLR,,0.00,WeatherDisplay:10.37,2013-01-20 17:14:00,
2013-01-20 09:19:00,45.4,39.3,30.26,SSW,212,1.1,0.0,79,0.00,CLR,,0.00,WeatherDisplay:10.37,2013-01-20 17:19:00,
2013-01-20 09:24:00,46.0,39.5,30.26,SW,228,1.1,1.1,78,0.00,CLR,,0.00,WeatherDisplay:10.37,2013-01-20 17:24:00,
2013-01-20 09:29:00,46.5,39.3,30.26,SW,219,1.1,1.1,76,0.00,CLR,,0.00,WeatherDisplay:10.37,2013-01-20 17:29:00,
2013-01-20 09:34:00,47.0,39.1,30.26,SSW,210,1.1,1.1,74,0.00,CLR,,0.00,WeatherDisplay:10.37,2013-01-20 17:34:00,
2013-01-20 09:39:00,47.3,39.8,30.26,SW,232,1.1,0.0,75,0.00,CLR,,0.00,WeatherDisplay:10.37,2013-01-20 17:39:00,
2013-01-20 09:44:00,47.5,40.0,30.26,SW,232,0.0,0.0,75,0.00,CLR,,0.00,WeatherDisplay:10.37,2013-01-20 17:44:00,
2013-01-20 09:49:00,47.9,40.0,30.26,SW,232,0.0,0.0,74,0.00,CLR,,0.00,WeatherDisplay:10.37,2013-01-20 17:49:00,
2013-01-20 09:54:00,48.3,40.0,30.26,SW,232,0.0,0.1,73,0.00,CLR,,0.00,WeatherDisplay:10.37,2013-01-20 17:54:00,
2013-01-20 09:59:00,48.8,40.2,30.26,SW,232,0.0,0.0,72,0.00,CLR,,0.00,WeatherDisplay:10.37,2013-01-20 17:59:00,
2013-01-20 10:04:00,49.1,40.1,30.26,SW,225,1.1,1.1,71,0.00,CLR,,0.00,WeatherDisplay:10.37,2013-01-20 18:04:00,
2013-01-20 10:09:00,49.7,40.7,30.26,SW,226,0.0,0.0,71,0.00,CLR,,0.00,WeatherDisplay:10.37,2013-01-20 18:09:00,
2013-01-20 10:14:00,50.1,40.7,30.26,SW,230,1.1,1.1,70,0.00,CLR,,0.00,WeatherDisplay:10.37,2013-01-20 18:14:00,
2013-01-20 10:19:00,50.6,41.9,30.26,ESE,114,1.1,1.1,72,0.00,CLR,,0.00,WeatherDisplay:10.37,2013-01-20 18:19:00,
2013-01-20 10:24:00,51.0,41.9,30.26,ESE,117,0.0,0.0,71,0.00,CLR,,0.00,WeatherDisplay:10.37,2013-01-20 18:24:00,
2013-01-20 10:29:00,51.4,42.3,30.25,SW,219,0.0,0.1,71,0.00,CLR,,0.00,WeatherDisplay:10.37,2013-01-20 18:29:00,
2013-01-20 10:34:00,51.8,41.9,30.25,SW,222,1.1,0.0,69,0.00,CLR,,0.00,WeatherDisplay:10.37,2013-01-20 18:34:00,
2013-01-20 10:39:00,52.0,42.1,30.25,WSW,243,0.0,0.0,69,0.00,CLR,,0.00,WeatherDisplay:10.37,2013-01-20 18:39:00,
2013-01-20 10:44:00,52.3,42.8,30.25,SSW,203,0.0,0.0,70,0.00,CLR,,0.00,WeatherDisplay:10.37,2013-01-20 18:44:00,
2013-01-20 10:49:00,52.8,42.5,30.25,West,264,1.1,0.0,68,0.00,CLR,,0.00,WeatherDisplay:10.37,2013-01-20 18:49:00,
2013-01-20 10:54:00,53.0,42.7,30.25,West,279,1.1,0.0,68,0.00,CLR,,0.00,WeatherDisplay:10.37,2013-01-20 18:54:00,
2013-01-20 10:59:00,53.3,42.6,30.25,SW,222,1.1,1.1,67,0.00,CLR,,0.00,WeatherDisplay:10.37,2013-01-20 18:59:00,
2013-01-20 11:04:00,53.7,42.6,30.24,SW,235,1.1,1.1,66,0.00,CLR,,0.00,WeatherDisplay:10.37,2013-01-20 19:04:00,
2013-01-20 11:09:00,54.2,42.7,30.24,WSW,252,1.1,1.1,65,0.00,CLR,,0.00,WeatherDisplay:10.37,2013-01-20 19:09:00,
2013-01-20 11:14:00,54.3,42.8,30.24,SSW,210,0.0,0.0,65,0.00,CLR,,0.00,WeatherDisplay:10.37,2013-01-20 19:14:00,
2013-01-20 11:19:00,54.8,43.7,30.23,West,264,2.3,2.3,66,0.00,CLR,,0.00,WeatherDisplay:10.37,2013-01-20 19:19:00,
2013-01-20 11:24:00,55.3,43.7,30.23,NW,322,1.1,0.0,65,0.00,CLR,,0.00,WeatherDisplay:10.37,2013-01-20 19:24:00,
2013-01-20 11:29:00,55.8,43.8,30.23,WNW,297,1.1,1.1,64,0.00,CLR,,0.00,WeatherDisplay:10.37,2013-01-20 19:29:00,
2013-01-20 11:34:00,56.2,43.8,30.22,West,274,1.1,1.1,63,0.00,CLR,,0.00,WeatherDisplay:10.37,2013-01-20 19:34:00,
2013-01-20 11:39:00,56.4,44.0,30.22,South,170,1.1,1.1,63,0.00,CLR,,0.00,WeatherDisplay:10.37,2013-01-20 19:39:00,
2013-01-20 11:44:00,56.5,44.0,30.21,SSW,207,1.1,1.1,63,0.00,CLR,,0.00,WeatherDisplay:10.37,2013-01-20 19:44:00,
2013-01-20 11:49:00,57.0,44.9,30.21,NE,36,1.0,0.0,64,0.00,CLR,,0.00,WeatherDisplay:10.37,2013-01-20 19:49:00,
2013-01-20 11:54:00,57.6,43.8,30.21,SW,224,1.1,1.1,60,0.00,CLR,,0.00,WeatherDisplay:10.37,2013-01-20 19:54:00,
2013-01-20 11:59:00,57.8,44.0,30.20,SSW,204,2.3,2.3,60,0.00,CLR,,0.00,WeatherDisplay:10.37,2013-01-20 19:59:00,
2013-01-20 12:04:00,58.1,44.7,30.20,SW,215,1.1,1.1,61,0.00,CLR,,0.00,WeatherDisplay:10.37,2013-01-20 20:04:00,
2013-01-20 12:09:00,58.4,44.6,30.20,WSW,246,1.0,1.0,60,0.00,CLR,,0.00,WeatherDisplay:10.37,2013-01-20 20:09:00,
2013-01-20 12:14:00,58.6,44.8,30.19,WNW,292,0.0,0.0,60,0.00,CLR,,0.00,WeatherDisplay:10.37,2013-01-20 20:14:00,
2013-01-20 12:19:00,59.1,43.9,30.19,SSW,201,1.1,1.1,57,0.00,CLR,,0.00,WeatherDisplay:10.37,2013-01-20 20:19:00,
2013-01-20 12:24:00,59.3,44.1,30.19,West,280,1.1,0.0,57,0.00,CLR,,0.00,WeatherDisplay:10.37,2013-01-20 20:24:00,
2013-01-20 12:29:00,59.9,44.6,30.19,West,274,1.1,0.0,57,0.00,CLR,,0.00,WeatherDisplay:10.37,2013-01-20 20:29:00,
2013-01-20 12:34:00,60.3,45.5,30.18,West,274,1.1,0.0,58,0.00,CLR,,0.00,WeatherDisplay:10.37,2013-01-20 20:34:00,
2013-01-20 12:39:00,60.7,44.4,30.18,NW,317,4.0,4.0,55,0.00,CLR,,0.00,WeatherDisplay:10.37,2013-01-20 20:39:00,
2013-01-20 12:44:00,60.9,45.1,30.17,SW,219,1.1,0.0,56,0.00,CLR,,0.00,WeatherDisplay:10.37,2013-01-20 20:44:00,
2013-01-20 12:49:00,61.1,44.3,30.17,WSW,256,3.5,3.5,54,0.00,CLR,,0.00,WeatherDisplay:10.37,2013-01-20 20:49:00,
2013-01-20 12:54:00,61.3,44.0,30.17,WNW,294,3.5,3.5,53,0.00,CLR,,0.00,WeatherDisplay:10.37,2013-01-20 20:54:00,
2013-01-20 12:59:00,61.5,44.7,30.17,NW,324,3.5,3.5,54,0.00,CLR,,0.00,WeatherDisplay:10.37,2013-01-20 20:59:00,
2013-01-20 13:04:00,61.4,45.1,30.16,North,349,3.5,3.5,55,0.00,CLR,,0.00,WeatherDisplay:10.37,2013-01-20 21:04:00,
2013-01-20 13:09:00,61.7,44.9,30.16,South,172,1.1,1.1,54,0.00,CLR,,0.00,WeatherDisplay:10.37,2013-01-20 21:09:00,
2013-01-20 13:14:00,62.0,45.2,30.16,North,358,4.0,4.0,54,0.00,CLR,,0.00,WeatherDisplay:10.37,2013-01-20 21:14:00,
2013-01-20 13:19:00,62.3,45.4,30.16,NNE,28,1.1,1.5,54,0.00,CLR,,0.00,WeatherDisplay:10.37,2013-01-20 21:19:00,
2013-01-20 13:24:00,62.6,45.2,30.15,North,354,1.1,1.1,53,0.00,CLR,,0.00,WeatherDisplay:10.37,2013-01-20 21:24:00,
2013-01-20 13:29:00,62.9,45.0,30.15,WNW,294,3.5,3.5,52,0.00,CLR,,0.00,WeatherDisplay:10.37,2013-01-20 21:29:00,
2013-01-20 13:34:00,63.0,44.6,30.15,SW,216,1.1,1.1,51,0.00,CLR,,0.00,WeatherDisplay:10.37,2013-01-20 21:34:00,
2013-01-20 13:39:00,63.2,45.3,30.15,North,1,3.5,3.5,52,0.00,CLR,,0.00,WeatherDisplay:10.37,2013-01-20 21:39:00,
2013-01-20 13:44:00,63.4,44.9,30.14,NW,314,2.3,2.3,51,0.00,CLR,,0.00,WeatherDisplay:10.37,2013-01-20 21:44:00,
2013-01-20 13:49:00,63.8,45.3,30.14,North,349,2.3,2.3,51,0.00,CLR,,0.00,WeatherDisplay:10.37,2013-01-20 21:49:00,
2013-01-20 13:54:00,63.8,44.3,30.14,North,4,3.5,3.5,49,0.00,CLR,,0.00,WeatherDisplay:10.37,2013-01-20 21:54:00,
2013-01-20 13:59:00,63.9,44.9,30.14,NW,319,1.1,1.1,50,0.00,CLR,,0.00,WeatherDisplay:10.37,2013-01-20 21:59:00,
2013-01-20 14:04:00,64.1,45.1,30.14,NNW,345,3.5,3.5,50,0.00,CLR,,0.00,WeatherDisplay:10.37,2013-01-20 22:04:00,
2013-01-20 14:09:00,64.2,45.2,30.14,WSW,240,1.1,1.1,50,0.00,CLR,,0.00,WeatherDisplay:10.37,2013-01-20 22:09:00,
2013-01-20 14:14:00,64.6,45.5,30.13,NNW,347,3.0,3.0,50,0.00,CLR,,0.00,WeatherDisplay:10.37,2013-01-20 22:14:00,
2013-01-20 14:19:00,64.7,45.1,30.13,North,359,3.5,3.5,49,0.00,CLR,,0.00,WeatherDisplay:10.37,2013-01-20 22:19:00,
2013-01-20 14:24:00,64.9,45.3,30.13,NW,314,3.5,3.5,49,0.00,CLR,,0.00,WeatherDisplay:10.37,2013-01-20 22:24:00,
2013-01-20 14:29:00,65.3,45.6,30.13,SW,231,1.1,1.1,49,0.00,CLR,,0.00,WeatherDisplay:10.37,2013-01-20 22:29:00,
2013-01-20 14:34:00,65.5,45.3,30.13,NW,311,2.3,2.3,48,0.00,CLR,,0.00,WeatherDisplay:10.37,2013-01-20 22:34:00,
2013-01-20 14:39:00,65.5,45.3,30.13,NNW,328,3.5,3.5,48,0.00,CLR,,0.00,WeatherDisplay:10.37,2013-01-20 22:39:00,
2013-01-20 14:44:00,65.4,45.7,30.13,WSW,243,2.3,2.3,49,0.00,CLR,,0.00,WeatherDisplay:10.37,2013-01-20 22:44:00,
2013-01-20 14:49:00,65.4,45.7,30.13,SE,138,2.3,2.3,49,0.00,CLR,,0.00,WeatherDisplay:10.37,2013-01-20 22:49:00,
2013-01-20 14:54:00,65.4,45.2,30.13,SSW,207,1.1,1.1,48,0.00,CLR,,0.00,WeatherDisplay:10.37,2013-01-20 22:54:00,
2013-01-20 14:59:00,65.5,45.3,30.13,South,188,1.1,0.0,48,0.00,CLR,,0.00,WeatherDisplay:10.37,2013-01-20 22:59:00,
2013-01-20 15:04:00,65.7,45.5,30.13,West,278,1.1,1.1,48,0.00,CLR,,0.00,WeatherDisplay:10.37,2013-01-20 23:04:00,
2013-01-20 15:09:00,65.4,45.2,30.13,West,259,2.3,2.3,48,0.00,CLR,,0.00,WeatherDisplay:10.37,2013-01-20 23:09:00,
2013-01-20 15:14:00,65.4,45.2,30.13,NNW,328,3.5,3.5,48,0.00,CLR,,0.00,WeatherDisplay:10.37,2013-01-20 23:14:00,
2013-01-20 15:19:00,65.4,44.6,30.13,ESE,115,1.1,1.1,47,0.00,CLR,,0.00,WeatherDisplay:10.37,2013-01-20 23:19:00,
2013-01-20 15:24:00,65.6,44.8,30.13,SW,235,1.1,1.1,47,0.00,CLR,,0.00,WeatherDisplay:10.37,2013-01-20 23:24:00,
2013-01-20 15:29:00,65.6,44.8,30.13,WNW,285,1.1,1.1,47,0.00,CLR,,0.00,WeatherDisplay:10.37,2013-01-20 23:29:00,
2013-01-20 15:34:00,65.4,44.6,30.13,WNW,300,2.3,2.3,47,0.00,CLR,,0.00,WeatherDisplay:10.37,2013-01-20 23:34:00,
2013-01-20 15:39:00,65.0,44.8,30.13,NW,307,1.1,1.1,48,0.00,CLR,,0.00,WeatherDisplay:10.37,2013-01-20 23:39:00,
2013-01-20 15:44:00,64.7,44.5,30.13,WNW,291,2.3,2.3,48,0.00,CLR,,0.00,WeatherDisplay:10.37,2013-01-20 23:44:00,
2013-01-20 15:49:00,64.1,44.5,30.13,WNW,288,1.1,1.1,49,0.00,CLR,,0.00,WeatherDisplay:10.37,2013-01-20 23:49:00,
2013-01-20 15:54:00,63.7,44.2,30.13,WNW,283,1.1,1.1,49,0.00,CLR,,0.00,WeatherDisplay:10.37,2013-01-20 23:54:00,
2013-01-20 15:59:00,63.2,43.7,30.13,West,274,2.3,2.3,49,0.00,CLR,,0.00,WeatherDisplay:10.37,2013-01-20 23:59:00,
2013-01-20 16:04:00,62.8,43.9,30.13,West,263,1.1,0.0,50,0.00,CLR,,0.00,WeatherDisplay:10.37,2013-01-21 00:04:00,
2013-01-20 16:09:00,62.4,43.5,30.13,SW,235,1.1,1.1,50,0.00,CLR,,0.00,WeatherDisplay:10.37,2013-01-21 00:09:00,
2013-01-20 16:14:00,62.1,43.7,30.13,West,260,1.1,1.1,51,0.00,CLR,,0.00,WeatherDisplay:10.37,2013-01-21 00:14:00,
2013-01-20 16:19:00,61.8,44.0,30.13,West,275,0.0,0.0,52,0.00,CLR,,0.00,WeatherDisplay:10.37,2013-01-21 00:19:00,
2013-01-20 16:24:00,61.6,43.8,30.13,SSW,201,1.1,0.0,52,0.00,CLR,,0.00,WeatherDisplay:10.37,2013-01-21 00:24:00,
2013-01-20 16:29:00,61.2,43.9,30.13,West,259,1.1,1.1,53,0.00,CLR,,0.00,WeatherDisplay:10.37,2013-01-21 00:29:00,
2013-01-20 16:34:00,61.0,44.2,30.14,West,274,1.1,1.1,54,0.00,CLR,,0.00,WeatherDisplay:10.37,2013-01-21 00:34:00,
2013-01-20 16:39:00,60.7,43.9,30.14,West,274,1.1,1.1,54,0.00,CLR,,0.00,WeatherDisplay:10.37,2013-01-21 00:39:00,
2013-01-20 16:44:00,60.3,43.6,30.14,West,274,0.0,0.0,54,0.00,CLR,,0.00,WeatherDisplay:10.37,2013-01-21 00:44:00,
2013-01-20 16:49:00,59.9,43.7,30.14,West,274,0.0,0.0,55,0.00,CLR,,0.00,WeatherDisplay:10.37,2013-01-21 00:49:00,
2013-01-20 16:54:00,59.6,43.9,30.14,West,274,0.0,0.0,56,0.00,CLR,,0.00,WeatherDisplay:10.37,2013-01-21 00:54:00,
2013-01-20 16:59:00,59.2,43.5,30.15,West,274,1.1,0.0,56,0.00,CLR,,0.00,WeatherDisplay:10.37,2013-01-21 00:59:00,
2013-01-20 17:04:00,58.7,43.5,30.15,West,274,0.0,0.0,57,0.00,CLR,,0.00,WeatherDisplay:10.37,2013-01-21 01:04:00,
2013-01-20 17:09:00,58.2,43.5,30.15,West,274,0.0,0.0,58,0.00,CLR,,0.00,WeatherDisplay:10.37,2013-01-21 01:09:00,
2013-01-20 17:14:00,57.6,43.4,30.15,West,274,0.0,0.0,59,0.00,CLR,,0.00,WeatherDisplay:10.37,2013-01-21 01:14:00,
2013-01-20 17:19:00,56.9,43.2,30.15,West,274,0.0,0.0,60,0.00,CLR,,0.00,WeatherDisplay:10.37,2013-01-21 01:19:00,
2013-01-20 17:24:00,56.1,43.3,30.16,West,274,0.0,0.0,62,0.00,CLR,,0.00,WeatherDisplay:10.37,2013-01-21 01:24:00,
2013-01-20 17:29:00,55.2,42.8,30.16,West,274,0.0,0.0,63,0.00,CLR,,0.00,WeatherDisplay:10.37,2013-01-21 01:29:00,
2013-01-20 17:34:00,54.3,43.2,30.16,West,274,0.0,0.0,66,0.00,CLR,,0.00,WeatherDisplay:10.37,2013-01-21 01:34:00,
2013-01-20 17:39:00,53.6,43.3,30.16,West,274,0.0,0.0,68,0.00,CLR,,0.00,WeatherDisplay:10.37,2013-01-21 01:39:00,
2013-01-20 17:45:00,52.8,42.9,30.16,West,274,0.0,0.0,69,0.00,CLR,,0.00,WeatherDisplay:10.37,2013-01-21 01:45:00,
2013-01-20 17:50:00,52.1,43.0,30.16,West,274,0.0,0.0,71,0.00,CLR,,0.00,WeatherDisplay:10.37,2013-01-21 01:50:00,
2013-01-20 17:55:00,51.5,42.8,30.16,West,274,0.0,0.0,72,0.00,CLR,,0.00,WeatherDisplay:10.37,2013-01-21 01:55:00,
2013-01-20 18:00:00,51.3,43.3,30.16,West,274,0.0,0.0,74,0.00,CLR,,0.00,WeatherDisplay:10.37,2013-01-21 02:00:00,
2013-01-20 18:05:00,51.2,43.2,30.16,West,274,0.0,0.0,74,0.00,CLR,,0.00,WeatherDisplay:10.37,2013-01-21 02:05:00,
2013-01-20 18:10:00,51.2,43.2,30.16,West,274,0.0,0.0,74,0.00,CLR,,0.00,WeatherDisplay:10.37,2013-01-21 02:10:00,
2013-01-20 18:15:00,51.1,43.1,30.16,West,274,0.0,0.0,74,0.00,CLR,,0.00,WeatherDisplay:10.37,2013-01-21 02:15:00,
2013-01-20 18:20:00,50.7,42.7,30.16,West,274,0.0,0.0,74,0.00,CLR,,0.00,WeatherDisplay:10.37,2013-01-21 02:20:00,
2013-01-20 18:25:00,50.3,42.7,30.16,West,274,0.0,0.0,75,0.00,CLR,,0.00,WeatherDisplay:10.37,2013-01-21 02:25:00,
2013-01-20 18:30:00,50.0,42.7,30.17,West,274,0.0,0.0,76,0.00,CLR,,0.00,WeatherDisplay:10.37,2013-01-21 02:30:00,
2013-01-20 18:35:00,49.7,42.4,30.17,West,274,0.0,0.0,76,0.00,CLR,,0.00,WeatherDisplay:10.37,2013-01-21 02:35:00,
2013-01-20 18:40:00,49.2,42.3,30.17,West,274,0.0,0.0,77,0.00,CLR,,0.00,WeatherDisplay:10.37,2013-01-21 02:40:00,
2013-01-20 18:45:00,49.0,42.4,30.17,West,274,0.0,0.0,78,0.00,CLR,,0.00,WeatherDisplay:10.37,2013-01-21 02:45:00,
2013-01-20 18:50:00,48.6,42.0,30.17,West,274,0.0,0.0,78,0.00,CLR,,0.00,WeatherDisplay:10.37,2013-01-21 02:50:00,
2013-01-20 18:55:00,48.2,42.0,30.17,West,274,0.0,0.0,79,0.00,CLR,,0.00,WeatherDisplay:10.37,2013-01-21 02:55:00,
2013-01-20 19:01:00,47.7,41.8,30.17,West,274,0.0,0.0,80,0.00,CLR,,0.00,WeatherDisplay:10.37,2013-01-21 03:01:00,
2013-01-20 19:07:00,47.2,41.3,30.17,West,274,0.0,0.0,80,0.00,CLR,,0.00,WeatherDisplay:10.37,2013-01-21 03:07:00,
2013-01-20 19:14:00,46.4,40.6,30.18,West,274,0.0,0.0,80,0.00,CLR,,0.00,WeatherDisplay:10.37,2013-01-21 03:14:00,
2013-01-20 19:19:00,45.9,40.1,30.18,West,274,0.0,0.0,80,0.00,CLR,,0.00,WeatherDisplay:10.37,2013-01-21 03:19:00,
2013-01-20 19:24:00,45.4,40.2,30.18,West,274,0.0,0.0,82,0.00,CLR,,0.00,WeatherDisplay:10.37,2013-01-21 03:24:00,
2013-01-20 19:30:00,45.0,40.5,30.18,West,274,0.0,0.0,84,0.00,CLR,,0.00,WeatherDisplay:10.37,2013-01-21 03:30:00,
2013-01-20 19:35:00,44.7,40.5,30.18,West,274,0.0,0.0,85,0.00,CLR,,0.00,WeatherDisplay:10.37,2013-01-21 03:35:00,
2013-01-20 19:40:00,44.5,40.3,30.18,West,274,0.0,0.0,85,0.00,CLR,,0.00,WeatherDisplay:10.37,2013-01-21 03:40:00,
2013-01-20 19:45:00,44.4,40.5,30.18,West,274,0.0,0.0,86,0.00,CLR,,0.00,WeatherDisplay:10.37,2013-01-21 03:45:00,
2013-01-20 19:50:00,44.4,40.8,30.18,West,274,0.0,0.0,87,0.00,CLR,,0.00,WeatherDisplay:10.37,2013-01-21 03:50:00,
2013-01-20 19:57:00,44.4,40.8,30.19,West,274,0.0,0.0,87,0.00,CLR,,0.00,WeatherDisplay:10.37,2013-01-21 03:57:00,
2013-01-20 20:02:00,44.5,41.2,30.19,West,274,0.0,0.0,88,0.00,CLR,,0.00,WeatherDisplay:10.37,2013-01-21 04:02:00,
2013-01-20 20:07:00,44.8,41.5,30.19,West,274,0.0,0.0,88,0.00,CLR,,0.00,WeatherDisplay:10.37,2013-01-21 04:07:00,
2013-01-20 20:26:00,44.4,40.5,30.19,West,274,0.0,0.0,86,0.00,CLR,,0.00,WeatherDisplay:10.37,2013-01-21 04:26:00,
2013-01-20 21:13:00,42.5,39.5,30.19,West,274,0.0,0.0,89,0.00,CLR,,0.00,WeatherDisplay:10.37,2013-01-21 05:13:00,
2013-01-20 21:18:00,42.3,39.3,30.19,West,274,0.0,0.0,89,0.00,CLR,,0.00,WeatherDisplay:10.37,2013-01-21 05:18:00,
2013-01-20 21:23:00,41.9,38.6,30.20,West,274,0.0,0.0,88,0.00,CLR,,0.00,WeatherDisplay:10.37,2013-01-21 05:23:00,
2013-01-20 21:28:00,41.6,38.6,30.20,West,274,0.0,0.0,89,0.00,CLR,,0.00,WeatherDisplay:10.37,2013-01-21 05:28:00,
2013-01-20 21:33:00,41.4,38.4,30.19,West,274,0.0,0.0,89,0.00,CLR,,0.00,WeatherDisplay:10.37,2013-01-21 05:33:00,
2013-01-20 21:38:00,41.1,38.1,30.20,West,274,0.0,0.0,89,0.00,CLR,,0.00,WeatherDisplay:10.37,2013-01-21 05:38:00,
2013-01-20 21:43:00,40.7,37.7,30.20,West,274,0.0,0.0,89,0.00,CLR,,0.00,WeatherDisplay:10.37,2013-01-21 05:43:00,
2013-01-20 21:48:00,40.6,37.6,30.20,West,274,0.0,0.0,89,0.00,CLR,,0.00,WeatherDisplay:10.37,2013-01-21 05:48:00,
2013-01-20 21:53:00,40.5,37.8,30.20,West,274,0.0,0.0,90,0.00,CLR,,0.00,WeatherDisplay:10.37,2013-01-21 05:53:00,
2013-01-20 21:58:00,40.4,38.0,30.20,West,274,0.0,0.0,91,0.00,CLR,,0.00,WeatherDisplay:10.37,2013-01-21 05:58:00,
2013-01-20 22:03:00,40.3,37.9,30.20,West,274,0.0,0.0,91,0.00,CLR,,0.00,WeatherDisplay:10.37,2013-01-21 06:03:00,
2013-01-20 22:08:00,40.1,37.7,30.20,West,274,0.0,0.0,91,0.00,CLR,,0.00,WeatherDisplay:10.37,2013-01-21 06:08:00,
2013-01-20 22:13:00,40.2,38.1,30.20,West,274,0.0,0.0,92,0.00,CLR,,0.00,WeatherDisplay:10.37,2013-01-21 06:13:00,
2013-01-20 22:18:00,40.1,37.7,30.20,West,274,0.0,0.0,91,0.00,CLR,,0.00,WeatherDisplay:10.37,2013-01-21 06:18:00,
2013-01-20 22:23:00,40.0,37.9,30.20,West,274,0.0,0.0,92,0.00,CLR,,0.00,WeatherDisplay:10.37,2013-01-21 06:23:00,
2013-01-20 22:28:00,40.0,37.9,30.20,West,274,0.0,0.0,92,0.00,CLR,,0.00,WeatherDisplay:10.37,2013-01-21 06:28:00,
2013-01-20 22:33:00,39.9,37.8,30.20,West,274,0.0,0.0,92,0.00,CLR,,0.00,WeatherDisplay:10.37,2013-01-21 06:33:00,
2013-01-20 22:38:00,39.9,37.8,30.20,West,274,0.0,0.0,92,0.00,CLR,,0.00,WeatherDisplay:10.37,2013-01-21 06:38:00,
2013-01-20 22:43:00,39.7,37.6,30.20,West,274,0.0,0.0,92,0.00,CLR,,0.00,WeatherDisplay:10.37,2013-01-21 06:43:00,
2013-01-20 22:48:00,39.6,37.5,30.20,West,274,0.0,0.0,92,0.00,CLR,,0.00,WeatherDisplay:10.37,2013-01-21 06:48:00,
2013-01-20 22:53:00,39.5,37.4,30.20,West,274,0.0,0.0,92,0.00,CLR,,0.00,WeatherDisplay:10.37,2013-01-21 06:53:00,
2013-01-20 22:58:00,39.3,37.2,30.20,West,274,0.0,0.0,92,0.00,CLR,,0.00,WeatherDisplay:10.37,2013-01-21 06:58:00,
2013-01-20 23:03:00,39.2,37.1,30.20,West,274,0.0,0.0,92,0.00,CLR,,0.00,WeatherDisplay:10.37,2013-01-21 07:03:00,
2013-01-20 23:08:00,39.1,37.2,30.20,West,274,0.0,0.0,93,0.00,CLR,,0.00,WeatherDisplay:10.37,2013-01-21 07:08:00,
2013-01-20 23:13:00,39.0,36.9,30.20,West,274,0.0,0.0,92,0.00,CLR,,0.00,WeatherDisplay:10.37,2013-01-21 07:13:00,
2013-01-20 23:18:00,38.8,36.7,30.20,West,274,0.0,0.0,92,0.00,CLR,,0.00,WeatherDisplay:10.37,2013-01-21 07:18:00,
2013-01-20 23:23:00,38.6,36.5,30.20,West,274,0.0,0.0,92,0.00,CLR,,0.00,WeatherDisplay:10.37,2013-01-21 07:23:00,
2013-01-20 23:28:00,38.4,36.3,30.20,West,274,0.0,0.0,92,0.00,CLR,,0.00,WeatherDisplay:10.37,2013-01-21 07:28:00,
2013-01-20 23:33:00,38.3,36.5,30.20,West,274,0.0,0.0,93,0.00,CLR,,0.00,WeatherDisplay:10.37,2013-01-21 07:33:00,
2013-01-20 23:38:00,38.3,36.5,30.20,West,274,0.0,0.0,93,0.00,CLR,,0.00,WeatherDisplay:10.37,2013-01-21 07:38:00,
2013-01-20 23:43:00,38.3,36.5,30.20,West,274,0.0,0.0,93,0.00,CLR,,0.00,WeatherDisplay:10.37,2013-01-21 07:43:00,
2013-01-20 23:48:00,38.5,36.9,30.20,West,274,0.0,0.0,94,0.00,CLR,,0.00,WeatherDisplay:10.37,2013-01-21 07:48:00,
2013-01-20 23:53:00,38.5,36.9,30.20,West,274,0.0,0.0,94,0.00,CLR,,0.00,WeatherDisplay:10.37,2013-01-21 07:53:00,
2013-01-20 23:58:00,38.7,37.1,30.20,West,274,0.0,0.0,94,0.00,CLR,,0.00,WeatherDisplay:10.37,2013-01-21 07:58:00,